Location: Kerb�bon
(47.7970°N, 3.3487°W)
Time: 13:00:03
(UTC+00:00)

Resurs 01 Rocket - Pass Details

Date: 12 May 2021
Orbit: 633 x 645 km, 97.9° (Epoch: 18 June)

Event Time Altitude Azimuth Distance (km) Brightness Sun altitude
Exits shadow 20:25:36 - 154° (SSE) 2,396 4.0 -7.1°
Reaches altitude 10° 20:26:29 10° 153° (SSE) 2,036 3.7 -7.2°
Maximum altitude 20:30:52 63° 73° (ENE) 720 1.7 -7.8°
Drops below altitude 10° 20:35:17 10° 352° (N) 2,047 5.0 -8.3°
Sets 20:37:31 0° 350° (N) 2,959 5.9 -8.6°
